Dewpoint
58 57 57 56 57 56 56 56 56 57 57 57 58 59 60 60 60 60 59 58 58 58 58 59 59 59 54 42 38 37 59 55 44 40 39 37 35 32 27 21 20 19 18 17 16 16 16
57 57 56 56 56 55 56 55 56 56 56 56 56 56 56 57 58 59 59 58 57 57 58 58 59 59 53 47 43 40 42 43 41 40 39 39 36 33 32 32 26 23 20 19 18 17 17
57 56 56 56 56 56 55 55 54 54 54 55 55 54 55 55 55 55 55 55 55 56 57 57 58 57 53 49 48 47 47 47 47 46 40 39 37 35 34 30 29 27 23 22 19 18 17
56 55 55 56 56 56 55 54 54 53 52 52 52 52 52 53 54 54 54 54 54 55 55 56 57 56 51 52 51 49 49 48 48 48 46 45 41 38 36 35 30 28 29 25 21 19 17
55 55 55 55 56 56 56 55 54 53 53 53 52 52 52 52 53 54 54 53 54 55 55 55 54 52 46 51 49 49 48 46 46 47 48 46 44 40 35 31 28 27 25 25 20 20 18
55 55 56 56 55 55 55 55 55 53 52 52 53 52 52 52 53 52 52 53 53 53 53 52 51 51 48 44 45 47 48 48 46 46 47 47 43 38 35 30 26 25 23 23 22 21 17
54 55 55 55 55 55 54 53 55 55 53 52 53 52 52 51 51 51 52 49 47 49 50 45 46 44 42 47 48 46 47 47 47 45 42 44 40 37 35 34 32 29 24 21 21 22 20
54 54 54 54 54 54 53 53 54 54 53 53 53 52 51 50 49 51 50 46 44 48 43 44 45 44 46 45 43 43 45 45 43 39 40 40 38 39 36 34 31 29 28 27 27 28 28
53 53 52 51 52 53 53 53 53 53 53 53 54 52 51 50 51 49 45 44 46 47 40 33 35 39 40 43 42 41 42 42 41 38 37 37 37 37 36 35 32 31 29 30 29 30 31
51 52 51 50 50 52 52 52 52 52 52 53 53 53 52 50 47 42 41 43 46 48 31 15 23 29 33 35 37 40 41 40 39 38 36 36 37 36 36 34 32 31 32 32 32 31 29
49 50 50 50 51 51 51 51 51 51 51 52 52 52 52 51 46 41 43 45 48 49 22 1 16 36 36 36 35 37 39 37 37 37 36 36 35 35 36 35 36 34 34 35 38 35 36
48 48 49 49 50 51 51 51 50 50 50 50 50 51 51 49 46 44 48 50 50 34 23 10 28 32 35 35 36 40 40 38 38 36 37 37 37 35 36 35 35 37 38 37 39 36 34
48 46 47 48 49 50 51 50 50 50 50 50 50 50 49 41 40 44 48 49 34 28 19 13 19 29 32 32 35 35 40 37 35 35 36 36 37 37 38 37 37 36 37 35 35 33 32
47 47 46 46 47 48 50 49 49 49 49 49 50 49 47 40 42 48 50 39 28 20 21 16 17 19 26 27 28 31 34 35 36 35 30 30 29 33 35 36 37 35 35 34 27 27 26
43 45 45 46 47 48 49 48 48 47 47 48 48 44 44 44 47 51 42 30 30 22 16 18 17 16 15 22 24 26 28 28 31 35 35 30 25 24 35 35 36 38 35 37 35 33 32
42 44 44 46 46 48 48 48 48 47 47 46 41 40 40 44 49 47 36 31 31 28 22 30 25 23 18 13 18 24 25 26 27 32 38 37 32 29 28 38 39 36 35 36 37 30 31
42 43 44 45 46 46 46 47 48 47 46 45 42 38 40 46 49 41 31 33 28 29 30 31 26 24 22 21 15 15 20 29 35 36 37 37 34 33 39 35 34 35 36 39 39 37 31
43 43 44 44 43 44 45 45 47 47 46 44 37 32 41 44 37 37 35 28 31 25 36 35 34 30 28 30 31 26 23 28 35 33 32 34 36 35 36 31 36 36 39 40 32 34 36
44 44 43 43 43 43 43 44 46 45 45 42 35 37 45 45 32 34 29 27 26 26 26 35 35 31 31 29 27 27 26 38 37 36 37 37 32 27 24 26 32 34 33 36 36 33 32
44 44 44 42 42 43 43 44 44 45 45 42 35 31 37 40 34 29 26 25 25 30 27 31 34 31 32 31 32 33 27 33 36 35 39 37 32 29 25 22 32 36 37 38 37 33 36
43 44 44 44 44 43 43 43 44 44 44 41 36 32 30 31 31 32 29 28 22 19 22 28 27 29 31 29 32 29 32 30 31 32 34 34 30 32 30 31 30 34 35 33 35 34 33
43 43 43 44 44 43 43 43 44 45 43 38 33 34 30 29 25 27 27 28 21 18 30 29 30 27 30 29 29 28 32 31 28 28 29 36 29 32 29 24 28 29 29 27 27 25 29
44 43 43 43 43 43 44 43 43 44 41 34 39 30 33 24 25 23 24 21 18 20 19 23 25 27 23 31 30 26 24 27 31 28 27 34 30 28 22 21 29 30 30 24 23 25 24
44 44 44 44 43 44 44 43 43 44 41 37 35 30 31 27 24 23 20 21 21 18 23 19 27 29 23 25 21 22 23 26 28 28 28 29 31 29 23 23 19 25 28 26 27 26 25
44 44 44 44 44 44 44 43 43 44 43 43 37 35 36 29 24 21 20 20 17 18 18 18 17 19 20 18 21 23 22 25 24 25 26 27 29 26 23 21 21 18 18 21 28 28 26
43 44 44 44 44 44 43 44 43 43 44 44 39 39 36 31 22 21 21 19 19 20 18 19 19 23 27 23 18 20 15 20 20 20 22 24 30 28 26 22 17 17 18 25 25 27 24
44 43 44 44 45 43 43 43 43 43 44 44 40 41 36 32 23 20 21 20 19 19 20 16 22 24 27 25 21 22 18 13 14 17 21 26 29 29 26 22 19 17 16 18 21 23 24
44 43 44 44 44 44 43 43 43 43 44 43 39 39 37 33 26 23 24 23 20 19 20 25 24 25 25 23 20 21 23 21 19 17 18 19 29 26 26 24 21 19 17 17 23 27 26
44 43 43 44 44 44 43 43 43 43 43 43 39 39 37 35 28 31 29 27 24 23 26 27 25 21 27 26 26 27 24 27 25 22 21 22 32 25 24 23 25 27 27 30 34 30 32
Lifted_Index
6 5 5 5 5 5 5 5 6 6 6 6 5 5 5 5 5 5 5 5 5 5 6 6 7 6 6 6 6 7 7 7 7 6 6 6 5 6 6 6 6 7 7 7 7 7 7
6 6 6 6 6 6 6 6 6 6 6 6 6 6 6 5 5 5 5 5 5 5 5 6 6 6 6 6 6 6 6 6 6 6 6 5 5 6 6 6 6 6 7 7 7 7 7
7 7 7 7 7 7 7 7 7 7 7 7 7 7 6 6 6 6 5 5 5 5 5 5 6 6 6 5 5 5 5 4 5 5 5 5 5 6 6 6 6 6 6 6 6 6 6
7 7 7 7 7 7 7 8 8 8 8 8 8 8 7 7 7 6 6 6 6 6 6 6 6 6 6 5 4 4 4 3 4 4 4 4 5 6 6 6 6 5 5 5 5 5 5
7 7 7 7 7 8 8 8 8 9 9 9 9 8 8 7 7 7 7 7 6 7 7 7 7 6 6 5 4 4 3 3 3 3 3 3 4 5 5 5 5 4 4 3 3 4 4
7 7 7 7 7 8 8 8 8 9 10 10 10 10 9 9 8 8 7 7 7 7 7 7 6 6 5 5 4 3 3 2 2 2 2 2 3 3 4 4 3 3 3 2 2 3 3
7 7 7 7 7 7 8 8 8 9 10 10 10 10 10 10 10 9 8 7 6 6 6 6 6 5 5 4 4 3 3 2 1 1 1 1 1 2 2 2 2 2 2 2 2 2 2
7 7 7 7 7 7 7 8 8 8 9 10 10 10 11 11 11 10 9 7 6 6 7 7 6 6 5 4 4 4 3 2 1 1 1 1 1 1 1 1 2 2 2 2 1 1 1
7 7 7 7 7 8 8 8 8 8 9 9 9 10 10 11 11 10 9 7 6 6 7 8 8 7 6 5 5 4 3 2 2 1 1 1 1 1 0 1 1 1 1 1 0 0 0
8 8 8 8 8 8 8 8 8 8 8 8 9 9 10 10 10 9 8 7 6 5 7 8 9 8 7 5 5 4 3 2 2 2 1 1 1 0 0 0 1 1 0 0 -0 0 0
9 8 8 8 8 8 8 8 9 9 9 9 9 9 9 9 9 8 7 6 5 4 5 7 8 7 6 5 4 4 3 3 2 2 1 1 1 0 -0 -0 0 -0 -0 -0 -0 0 0
9 8 8 8 8 8 8 8 8 9 9 9 9 9 9 9 8 7 6 5 4 4 5 6 7 6 5 5 4 3 3 3 2 1 1 2 1 1 0 0 -0 -0 -1 -0 -0 0 0
8 8 8 8 7 7 7 8 8 8 8 9 9 9 9 8 8 7 6 4 4 4 5 6 5 5 4 4 4 3 2 2 2 1 1 1 1 1 1 0 0 -0 -0 -0 -0 -0 0
7 7 7 7 7 6 6 6 7 7 8 8 8 8 8 8 7 6 5 4 4 5 5 4 4 4 4 4 3 3 2 2 1 1 1 1 1 1 0 -0 0 -0 -0 -0 -0 -0 -0
6 5 5 5 5 4 4 5 6 6 7 7 7 7 7 6 6 5 4 3 3 4 4 3 3 4 4 3 3 2 1 1 1 0 -0 0 0 0 -1 -1 -0 -0 -0 -0 -1 -1 -1
5 4 4 4 3 3 3 3 4 5 5 5 5 5 5 4 4 3 3 2 3 3 3 2 2 3 3 2 1 0 0 0 0 -0 -0 -0 -0 -0 -1 -1 -1 -1 -1 -1 -1 -1 -1
4 4 4 4 3 3 2 2 2 3 4 4 4 3 3 2 2 2 2 2 2 2 2 1 1 1 1 1 0 -1 -1 -0 -0 -0 -0 -0 0 0 -0 -1 -1 -1 -1 -1 -0 -0 -0
4 4 4 4 3 3 2 2 2 2 3 4 3 2 1 1 1 1 1 1 1 1 1 1 1 1 0 0 -0 -1 -1 -0 1 1 1 1 0 0 0 -0 -0 -1 -1 -0 0 0 0
4 4 4 4 3 3 3 2 2 2 3 4 3 2 1 1 1 1 1 1 1 1 1 1 1 1 1 0 -0 -0 -0 0 1 1 2 1 1 0 1 0 -0 -1 -1 -0 0 1 1
3 3 3 3 3 3 3 3 2 3 3 3 3 2 2 1 1 1 1 1 0 0 1 1 1 1 1 1 0 0 0 0 1 1 2 1 1 0 0 0 -0 -0 -0 0 0 1 1
3 3 3 3 3 3 3 3 2 3 3 3 3 3 2 1 1 1 1 1 1 1 1 1 2 2 1 1 1 0 0 0 1 2 2 2 1 1 1 1 -0 -0 -0 0 1 1 2
3 3 3 3 3 3 3 2 2 2 3 3 3 2 2 2 2 2 2 1 1 1 1 2 2 2 2 1 1 1 1 1 1 2 2 2 1 1 1 1 0 -0 0 0 1 1 1
3 3 3 3 3 3 3 2 2 2 2 3 3 2 2 1 1 2 2 2 2 2 2 2 3 3 3 2 2 2 2 2 1 1 2 2 2 2 2 1 1 0 0 0 0 1 1
2 2 2 2 2 2 2 2 2 2 2 2 2 2 1 1 1 1 1 1 2 2 2 3 3 3 3 4 4 3 3 2 1 1 1 2 2 2 2 2 1 0 0 -0 -0 0 0
1 1 1 1 1 2 2 2 2 2 2 1 1 1 1 1 0 0 1 1 1 2 2 2 3 3 4 4 3 3 2 1 1 1 1 1 1 2 2 1 1 1 0 -0 -0 0 0
0 0 0 0 0 1 1 1 2 2 2 1 1 1 1 0 0 0 1 1 1 1 1 1 2 3 3 3 3 2 1 1 0 0 0 0 1 1 1 1 1 1 1 -0 0 0 1
0 0 -0 -0 -0 0 1 1 1 1 1 1 1 1 1 1 1 1 1 1 1 1 0 0 1 2 2 3 2 2 1 1 0 0 0 -0 -0 0 0 1 1 1 1 0 1 1 1
0 -0 -0 -0 -0 0 0 1 1 1 1 1 1 1 1 1 1 1 1 1 1 1 0 -0 -0 0 1 2 2 1 1 1 1 0 0 0 -0 -0 0 0 0 1 1 0 0 0 0
0 -0 -0 -0 -0 -0 0 1 1 1 1 1 1 1 1 1 1 1 1 1 1 1 0 -0 -0 0 0 1 1 1 1 0 0 0 0 0 0 0 0 -0 -0 -0 -0 -0 -0 -0 -0